Tracking 29892 objects as of 21-Nov-2024
HD Live streaming from Space Station
objects crossing your sky now

NOAA 16 DEB

Track NOAA 16 DEB now!
10-day predictions


NORAD ID: 41266
Int'l Code: 2000-055FS
Perigee: 820.9 km
Apogee: 826.8 km
Inclination: 98.7 °
Period: 101.2 minutes
Semi major axis: 7194 km
RCS: Unknown
Launch date: September 21, 2000
Source: United States (US)
Launch site: AIR FORCE WESTERN TEST RANGE (AFWTR)

Note: This is SATELLITE DEBRIS
Your satellite tracking list
Your tracking list is empty




NASA's NSSDC Master Catalog

Two Line Element Set (TLE):
1 41266U 00055FS  24325.14828332  .00006979  00000-0  31419-2 0  9997
2 41266  98.6879  26.6543 0004052 235.7575 124.3220 14.22558523460077
Source of the keplerian elements: AFSPC